Regional Weather Roundup
Issued by NWS Little Rock, AR

Home | Current Version | Previous Version | Text Only | Print | Product List | Glossary Off
Versions: 1 2 3 4 5 6 7 8 9 10 11 12 13 14 15 16 17 18 19 20 21 22 23 24 25 26 27 28 29 30 31

000
ASUS44 KLZK 191705
RWRLZK

WEATHER ROUNDUP FOR ARKANSAS
NATIONAL WEATHER SERVICE LITTLE ROCK AR
1100 AM CST THU JAN 19 2017

NOTE: "FAIR" INDICATES FEW OR NO CLOUDS BELOW 12,000 FEET WITH NO
SIGNIFICANT WEATHER AND/OR OBSTRUCTIONS TO VISIBILITY.

ARZ001-003-010-029-191800-
NORTHWEST ARKANSAS

CITY           SKY/WX    TMP DP  RH WIND       PRES   REMARKS
FAYETTEVILLE   CLOUDY    53  51  93 S3        29.80F
FORT SMITH     CLOUDY    49  47  93 SE6       29.83F FOG
HARRISON       FOG       46  46 100 SE7       29.83F VSB 1
BENTONVILLE    CLOUDY   N/A N/A N/A SE6       29.80F VSB 3/4
ROGERS         FOG       47  47 100 E6        29.80F VSB 1/4
SILOAM SPGS    CLOUDY    50  46  87 SE5       29.79F
HIGHFILL       FOG       50  50 100 SE7       29.79F VSB 1/2
SPRINGDALE     CLOUDY    52  52 100 SE5       29.81F FOG
$$

ARZ004-005-016-191800-
NORTH CENTRAL ARKANSAS

CITY           SKY/WX    TMP DP  RH WIND       PRES   REMARKS
BATESVILLE     CLOUDY    46  45  93 CALM      29.89R VSB<1/4
FLIPPIN        CLOUDY    46  41  81 E3        29.83F
MTN HOME       CLOUDY    45  45 100 SE5       29.84F FOG
$$

ARZ040-041-191800-
WEST CENTRAL ARKANSAS

CITY           SKY/WX    TMP DP  RH WIND       PRES   REMARKS
MENA           CLOUDY    52  50  93 E3        29.85S VSB 1/2
MOUNT IDA      FOG       50  50 100 CALM      29.82F VSB 1
$$

ARZ009-017-025-026-028-191800-
NORTHEAST ARKANSAS

CITY           SKY/WX    TMP DP  RH WIND       PRES   REMARKS
CORNING        FOG       46  46 100 N5        29.87F VSB 1
JONESBORO      FOG       49  49 100 CALM      29.86S VSB 3/4
NEWPORT        FOG       47  46  97 NE8       29.86F VSB 1/2
WALNUT RIDGE   CLOUDY    46  43  87 N3        29.88S VSB 1/2
BLYTHEVILLE    CLOUDY    56  54  93 SE5       29.86F FOG
NW BLYTHEVILLE FOG       54  52  94 SE3       29.86F VSB 1/2
$$

ARZ022-023-033-042-044-191800-
CENTRAL ARKANSAS

CITY           SKY/WX    TMP DP  RH WIND       PRES   REMARKS
LITTLE ROCK    CLOUDY    49  49 100 CALM      29.87S FOG
N LITTLE ROCK    N/A     49  48  97 CALM      29.87S
JACKSONVILLE   CLOUDY    49  49 100 CALM      29.86S FOG
SEARCY         CLOUDY    48  48 100 CALM      29.88R FOG
HOT SPRINGS    FOG       50  50 100 CALM      29.86S VSB 1
RUSSELLVILLE   CLOUDY    48  47  96 S3        29.85S
CLINTON        FOG       48  48 100 CALM      29.86F VSB 3/4
$$

ARZ036-191800-
EAST ARKANSAS

CITY           SKY/WX    TMP DP  RH WIND       PRES   REMARKS
WEST MEMPHIS   LGT RAIN  56  32  40 CALM      29.85F
$$

ARZ050-053-066-070-073-191800-
SOUTHWEST ARKANSAS

CITY           SKY/WX    TMP DP  RH WIND       PRES   REMARKS
ARKADELPHIA    CLOUDY    50  50 100 CALM      29.86F
CAMDEN         CLOUDY    52  48  87 CALM      29.86F
TEXARKANA      FOG       51  51 100 S3        29.87S VSB 3/4
EL DORADO      CLOUDY    52  52 100 CALM      29.86F
DE QUEEN       CLOUDY    50  50 100 SE5       29.86R FOG
$$

ARZ056-057-069-191800-
SOUTHEAST ARKANSAS

CITY           SKY/WX    TMP DP  RH WIND       PRES   REMARKS
PINE BLUFF     CLOUDY    51  50  96 CALM      29.86F
STUTTGART      CLOUDY    52  45  76 CALM      29.86F
MONTICELLO     CLOUDY    54  53  97 SE5       29.87F

$$






USA.gov is the U.S. government's official web portal to all federal, state and local government web resources and services.